[[{"header":{"parameterUnit":"m.s-1","parameterCategory":1,"la1":30.2991,"la2":30.254,"lo1":-89.0895,"lo2":-89.0444,"dy":0.0017,"dx":0.0017,"nx":28,"ny":28,"refTime":"2023-08-11T03:00:00:Z","depth":0,"parameterNumber":2,"parameterNumberName":"U-component_of_WINDS"},"data":[0,0,0,0,0,0,0,0,0,0,0,0,0,0,0,0,0,0,0,0,0,0,0,0,0,0,0,0,0,0,0,0,0,0,0,0,0,0,0,0,0,0,0,0,0,0,0,0,0,0,0,0,0,0,0,0,0,0,3.8747,3.8748,0,3.8832,3.8833,3.8834,3.8828,3.8826,3.8825,3.8824,3.8914,3.8918,3.8921,0,0,0,0,0,0,0,0,0,0,0,0,0,3.8581,3.8584,3.8747,3.8748,3.8749,3.8832,3.8833,3.8834,3.8828,3.8826,3.8825,3.8823,3.8913,3.8917,3.8922,0,0,0,0,0,0,0,0,0,0,0,0,0,3.8659,3.8585,3.8747,3.8756,3.8757,3.8832,3.8833,3.8835,3.8828,3.8826,3.8824,3.8823,3.8912,3.8917,3.8922,3.8994,0,0,3.8939,3.8941,0,0,0,0,0,0,0,0,3.8654,3.8665,3.8753,3.8755,3.8757,3.8817,3.8808,3.8888,3.8829,3.8801,3.8824,3.8822,3.8884,3.8891,3.8912,3.8998,3.9002,3.8939,3.8942,3.8945,3.8946,0,0,0,0,0,0,0,3.8649,3.8661,3.8781,3.8755,3.8757,3.8756,3.8765,3.8823,3.8852,3.8804,3.8803,3.8813,3.8884,3.8906,3.8914,3.9004,3.8939,3.8944,3.8947,3.8949,3.9154,3.9156,0,0,0,0,0,0,3.8641,3.8657,3.8778,3.8783,3.87,3.8761,3.8771,3.88,3.8852,3.8858,3.8815,3.8813,3.8898,3.8907,3.8917,3.9005,3.8945,3.895,3.8953,3.9152,3.9155,3.9157,0,0,0,0,0,0,3.8638,3.8652,3.8775,3.872,3.8735,3.8766,3.8799,3.8803,3.8825,3.886,3.8866,3.8832,3.8897,3.8909,3.8975,3.9008,3.8952,3.8957,3.9149,3.9153,3.9156,3.918,0,0,0,0,0,0,3.8633,3.8651,3.8678,3.8721,3.8738,3.883,3.8801,3.8806,3.8834,3.8832,3.8878,3.8883,3.8896,3.8967,3.898,3.9014,3.8961,3.9147,3.9151,3.9155,3.9177,3.9184,3.9191,0,0,0,0,0,3.8627,3.8682,3.8679,3.8694,3.8772,3.8832,3.8842,3.8855,3.8836,3.8864,3.8887,3.8882,3.9002,3.8974,3.8989,3.9025,3.9145,3.915,3.9154,3.9174,3.9183,3.919,0,0,0,0,0,0,3.8643,3.8687,3.8685,3.8755,3.879,3.8831,3.8866,3.8864,3.8906,3.8903,3.8918,3.8928,3.8994,3.9016,3.8984,3.9097,3.9071,3.9079,3.908,3.9089,3.9096,3.9089,3.8966,0,0,0,0,0,3.8654,3.8698,3.8735,3.8793,3.8811,3.8836,3.8862,3.8869,3.8906,3.8921,3.8949,3.8986,3.9032,3.9062,3.9106,3.918,3.919,3.9212,3.9219,3.9225,3.9232,3.9273,3.9283,3.9173,3.9173,3.9173,0,0,3.8679,3.8708,3.8735,3.8797,3.8825,3.8871,3.8848,3.8897,3.8932,3.8929,3.8992,3.9014,3.9056,3.9126,3.9159,3.9147,3.9264,3.9231,3.9235,3.9239,3.9279,3.9289,3.9298,3.9177,3.9176,3.9176,0,0,3.8746,3.8773,3.8825,3.8853,3.8895,3.8911,3.8923,3.8965,3.8979,3.9043,3.9042,3.9083,3.9162,3.9192,3.9218,3.9298,3.9295,3.9312,3.9348,3.9388,3.9396,3.9404,3.9433,3.9443,3.9319,3.9319,3.9319,0,3.8772,3.884,3.8852,3.8902,3.8929,3.8928,3.8981,3.9008,3.9062,3.9082,3.9067,3.9166,3.9195,3.9272,3.9292,3.9313,3.9328,3.9307,3.9394,3.9402,3.9409,3.9437,3.9448,3.9321,3.9321,3.9321,3.932,0,3.8869,3.8916,3.8953,3.9005,3.9037,3.9088,3.9109,3.914,3.9144,3.9162,3.9228,3.9262,3.9313,3.9332,3.9337,3.941,3.9402,3.939,3.9364,3.9421,3.9448,3.9458,3.9323,3.9323,3.9322,3.9322,0,0,3.8949,3.9007,3.902,3.9044,3.909,3.9128,3.9179,3.9228,3.9255,3.9293,3.9337,3.9404,3.9394,3.9423,3.9432,3.9467,3.9528,3.9452,3.9453,3.9465,3.9612,3.9619,3.9631,3.9527,3.9529,3.953,3.9608,0,3.9022,3.9112,3.9124,3.9204,3.9249,3.9248,3.9293,3.9327,3.9345,3.9386,3.9407,3.9454,3.9437,3.9455,3.949,3.9513,3.9558,3.9508,3.9569,3.9571,3.9558,3.9645,3.9654,3.9725,3.9618,3.962,3.9621,0,3.9118,3.9158,3.9242,3.9283,3.9302,3.9342,3.9388,3.9427,3.9466,3.9477,3.951,3.9514,3.9569,3.954,3.9616,3.9581,3.9607,3.9623,3.9626,3.9632,3.9599,3.9654,3.9748,3.9759,3.9638,3.9636,3.9635,0,3.9168,3.9243,3.9303,3.9323,3.9372,3.94,3.9422,3.9459,3.9488,3.9529,3.9548,3.9595,3.9621,3.9658,3.9675,3.9653,3.975,3.9723,3.9761,3.9761,3.9781,3.978,3.9882,3.9798,3.9798,3.9798,3.9798,0,3.9248,3.93,3.9326,3.9363,3.9421,3.9436,3.9493,3.9514,3.9547,3.9589,3.9592,3.9631,3.9652,3.9694,3.9709,3.9769,3.9781,3.9792,3.9795,3.9792,3.979,3.9808,3.9804,3.9801,3.98,3.98,3.9799,0,3.9314,3.9333,3.9399,3.9439,3.9451,3.9492,3.9527,3.9564,3.9582,3.9635,3.9648,3.9677,3.9727,3.9748,3.9811,3.982,3.989,3.9889,3.9876,3.9877,3.9914,3.991,4.0031,4.0048,3.9953,3.9954,3.9955,0,3.9363,3.9403,3.9447,3.9475,3.9497,3.9542,3.9572,3.9588,3.9618,3.9666,3.9697,3.9747,3.9788,3.9869,3.9896,3.9944,3.9944,3.9983,3.9951,3.9947,3.9945,3.9942,3.9946,3.9989,3.999,3.9991,3.9991,0,3.9449,3.9457,3.9498,3.9544,3.9578,3.9615,3.9651,3.9674,3.9696,3.973,3.9781,3.9813,3.9876,3.9926,3.9975,3.9999,3.9999,4.0001,4.0012,4.0009,4.0,4.0005,3.9892,3.9998,3.9997,3.9997,3.9997,3.9996,3.9508,3.9543,3.958,3.9627,3.9655,3.9689,3.9725,3.9747,3.979,3.9842,3.9849,3.9904,3.9942,4.0008,4.0034,4.0078,4.0068,4.0084,4.0088,4.0092,4.0094,3.9993,4.0087,4.0087,4.0086,4.0086,4.0086,0,3.9594,3.9618,3.966,3.971,3.9747,3.9743,3.9782,3.9814,3.9861,3.9897,3.9937,3.9996,4.0044,4.0075,4.0125,4.0154,4.0155,4.0166,4.0164,4.0169,4.0101,4.0086,4.0164,4.0164,4.0164,4.0164,4.0164,4.0164,3.9643,3.9702,3.9715,3.9788,3.9812,3.9865,3.9888,3.9919,3.9947,4.0013,4.0053,4.0072,4.0106,4.0158,4.0202,4.021,4.0228,4.024,4.0247,4.0182,4.0174,4.0167,4.0153,4.0244,4.0244,4.0313,4.0313,4.0314]},{"header":{"parameterUnit":"m.s-1","parameterCategory":1,"la1":30.2991,"la2":30.254,"lo1":-89.0895,"lo2":-89.0444,"dy":0.0017,"dx":0.0017,"nx":28,"ny":28,"refTime":"2023-08-11T03:00:00:Z","depth":0,"parameterNumber":3,"parameterNumberName":"V-component_of_WINDS"},"data":[0,0,0,0,0,0,0,0,0,0,0,0,0,0,0,0,0,0,0,0,0,0,0,0,0,0,0,0,0,0,0,0,0,0,0,0,0,0,0,0,0,0,0,0,0,0,0,0,0,0,0,0,0,0,0,0,0,0,1.8067,1.8067,0,1.8064,1.8064,1.8064,1.8043,1.8043,1.8042,1.8042,1.8039,1.8039,1.804,0,0,0,0,0,0,0,0,0,0,0,0,0,1.8053,1.8053,1.8067,1.8066,1.8066,1.8064,1.8064,1.8064,1.8043,1.8042,1.8042,1.8041,1.8039,1.8039,1.804,0,0,0,0,0,0,0,0,0,0,0,0,0,1.8055,1.8053,1.8067,1.8056,1.8055,1.8064,1.8064,1.8064,1.8043,1.8042,1.8042,1.8041,1.8039,1.8039,1.804,1.8059,0,0,1.8042,1.8042,0,0,0,0,0,0,0,0,1.8055,1.8056,1.8057,1.8057,1.8055,1.8053,1.8058,1.8062,1.8043,1.8048,1.8042,1.8041,1.8044,1.8044,1.8045,1.8059,1.8059,1.8042,1.8042,1.8042,1.8042,0,0,0,0,0,0,0,1.8055,1.8056,1.8066,1.8057,1.8056,1.8051,1.805,1.8059,1.805,1.8047,1.8046,1.8046,1.8043,1.8045,1.8045,1.8059,1.8042,1.8042,1.8043,1.8043,1.8087,1.8088,0,0,0,0,0,0,1.8056,1.8056,1.8066,1.8065,1.8053,1.8052,1.8051,1.8055,1.805,1.8049,1.8046,1.8045,1.8044,1.8045,1.8045,1.8067,1.8042,1.8043,1.8043,1.8086,1.8087,1.8088,0,0,0,0,0,0,1.8056,1.8057,1.8066,1.806,1.8061,1.8053,1.8057,1.8055,1.8056,1.8049,1.8048,1.8049,1.8044,1.8044,1.8056,1.8066,1.8043,1.8044,1.8085,1.8086,1.8088,1.8111,0,0,0,0,0,0,1.8056,1.8057,1.8065,1.8061,1.8061,1.8076,1.8057,1.8055,1.8058,1.8055,1.8052,1.8051,1.8043,1.8055,1.8056,1.8067,1.8044,1.8084,1.8086,1.8087,1.8109,1.8112,1.8115,0,0,0,0,0,1.8055,1.8072,1.8065,1.8067,1.807,1.8077,1.8077,1.8069,1.8059,1.8066,1.8061,1.8051,1.8065,1.8056,1.8057,1.8068,1.8083,1.8085,1.8087,1.8107,1.8112,1.8115,0,0,0,0,0,0,1.8078,1.8071,1.8064,1.8079,1.8079,1.8074,1.8082,1.8074,1.8076,1.8074,1.8063,1.8062,1.8075,1.8073,1.8063,1.8086,1.8072,1.8075,1.8087,1.8091,1.8095,1.8095,1.8045,0,0,0,0,0,1.8084,1.8091,1.8084,1.8098,1.8099,1.8091,1.8093,1.8086,1.8085,1.8085,1.8081,1.8081,1.8085,1.8088,1.8092,1.8108,1.8107,1.8117,1.812,1.8123,1.8125,1.8132,1.8136,1.8094,1.8094,1.8094,0,0,1.8098,1.8095,1.81,1.8103,1.8102,1.8108,1.8091,1.8098,1.8103,1.8086,1.8096,1.8094,1.8092,1.8106,1.8112,1.8105,1.8136,1.8125,1.8127,1.8128,1.8135,1.8139,1.8142,1.8095,1.8095,1.8095,0,0,1.8127,1.8126,1.8137,1.8136,1.8134,1.8129,1.8131,1.8127,1.8125,1.8135,1.8123,1.8128,1.8135,1.8135,1.8135,1.8163,1.8153,1.8164,1.8182,1.8189,1.8193,1.8196,1.8205,1.8208,1.8166,1.8166,1.8167,0,1.8144,1.8153,1.8144,1.8152,1.8153,1.8138,1.8149,1.8149,1.8149,1.815,1.8142,1.8151,1.8149,1.8162,1.8169,1.817,1.8172,1.8165,1.8193,1.8196,1.8199,1.8207,1.8211,1.8168,1.8168,1.8168,1.8167,0,1.8174,1.8181,1.819,1.819,1.8192,1.8202,1.8193,1.8197,1.819,1.8185,1.8195,1.8192,1.8195,1.8197,1.8191,1.8209,1.8205,1.8195,1.8181,1.8204,1.8212,1.8215,1.817,1.8169,1.8169,1.8168,0,0,1.8217,1.8211,1.8214,1.8214,1.8211,1.8215,1.8224,1.8226,1.8229,1.8229,1.8236,1.8243,1.8234,1.8234,1.8227,1.8234,1.8255,1.8224,1.8224,1.8229,1.8275,1.8282,1.8286,1.8249,1.825,1.825,1.8275,0,1.8244,1.8258,1.8249,1.8265,1.827,1.8256,1.8264,1.8262,1.8258,1.8262,1.8257,1.8262,1.825,1.825,1.8256,1.8252,1.8264,1.825,1.8255,1.8255,1.8255,1.829,1.8297,1.8321,1.8278,1.8278,1.8279,0,1.8277,1.8278,1.8294,1.8289,1.8291,1.8298,1.8299,1.8303,1.8301,1.8297,1.8298,1.8289,1.8297,1.8283,1.8293,1.8284,1.8285,1.8283,1.8284,1.8283,1.8268,1.829,1.8328,1.8331,1.8284,1.8283,1.8283,0,1.8305,1.8311,1.8321,1.8321,1.8316,1.8321,1.8319,1.8316,1.8318,1.8319,1.832,1.8322,1.8322,1.8324,1.8316,1.8307,1.8327,1.8312,1.8324,1.8324,1.8328,1.8328,1.8366,1.833,1.833,1.833,1.833,0,1.8335,1.8345,1.8333,1.8339,1.835,1.834,1.8351,1.8348,1.8345,1.835,1.8339,1.8344,1.8333,1.8336,1.833,1.8339,1.834,1.8337,1.8335,1.8337,1.8338,1.8338,1.8336,1.8331,1.8331,1.8331,1.8331,0,1.8368,1.8361,1.8371,1.8365,1.8364,1.8372,1.8367,1.8372,1.8367,1.8373,1.8374,1.8366,1.837,1.8362,1.8365,1.836,1.8373,1.8369,1.8374,1.8372,1.8383,1.8382,1.8423,1.8427,1.8389,1.839,1.839,0,1.8388,1.8395,1.839,1.8392,1.8391,1.8395,1.8397,1.8387,1.8389,1.8387,1.8393,1.8395,1.8397,1.8404,1.8398,1.84,1.8395,1.8409,1.8395,1.8398,1.8395,1.8394,1.8394,1.8412,1.8412,1.8413,1.8413,0,1.8423,1.8419,1.8421,1.8422,1.8424,1.8425,1.8425,1.8427,1.8417,1.842,1.8423,1.8424,1.8427,1.843,1.843,1.8428,1.8419,1.8418,1.842,1.8423,1.8425,1.8423,1.8381,1.8417,1.8416,1.8416,1.8416,1.8416,1.8449,1.8455,1.8452,1.8455,1.8454,1.8453,1.8458,1.8453,1.8456,1.8457,1.8451,1.8456,1.8453,1.8453,1.8452,1.8455,1.8449,1.8453,1.8454,1.8455,1.8456,1.8425,1.8456,1.8455,1.8455,1.8455,1.8455,0,1.8483,1.848,1.8483,1.8483,1.8485,1.8476,1.8475,1.8478,1.8482,1.848,1.8482,1.8486,1.8489,1.8483,1.8485,1.8488,1.8484,1.8489,1.8488,1.8488,1.8462,1.8459,1.8492,1.8492,1.8492,1.8492,1.8492,1.8492,1.8501,1.8509,1.8505,1.8513,1.851,1.8514,1.8514,1.8514,1.8513,1.8517,1.8519,1.8516,1.8512,1.8513,1.8515,1.8513,1.8514,1.8521,1.8517,1.8493,1.849,1.8486,1.8484,1.8521,1.8521,1.8543,1.8543,1.8543]}]]